Regional Weather Roundup
Issued by NWS

Home | Current Version | Previous Version | Graphics & Text | Print | Product List | Glossary On
Versions: 1 2 3 4 5 6 7 8 9 10 11 12 13 14 15 16 17 18 19 20 21 22 23 24 25 26 27
000
ASUS45 KPSR 190010
RWRAZ

ARIZONA HOURLY REGIONAL WEATHER ROUNDUP
NATIONAL WEATHER SERVICE PHOENIX AZ
500 PM MST WED JAN 18 2017

NOTE: FAIR INDICATES FEW OR NO CLOUDS BELOW 12,000 FEET WITH NO
SIGNIFICANT WEATHER AND/OR OBSTRUCTIONS TO VISIBILITY.

AZZ001>003-036-190100-
NORTHWEST ARIZONA

CITY           SKY/WX    TMP DP  RH WIND       PRES   REMARKS
BULLHEAD CITY  CLEAR     61  27  27 SW8       30.00R
KINGMAN        CLEAR     55  21  26 SW14      30.00F
6HR MIN TEMP:  49; 6HR MAX TEMP:  58;

$$

AZZ004>008-015-016-018-190100-
NORTH CENTRAL ARIZONA

CITY           SKY/WX    TMP DP  RH WIND       PRES   REMARKS
GRAND CANYON   CLEAR     44  21  40 W8G18     30.05R
6HR MIN TEMP:  40; 6HR MAX TEMP:  47;

WILLIAMS       CLEAR     45  21  39 W10G16    30.06F
PRESCOTT       PTCLDY    50  28  42 W10       30.05S
6HR MIN TEMP:  45; 6HR MAX TEMP:  53;

FLAGSTAFF      CLEAR     40  24  53 SW13      30.06S WCI  32
6HR MIN TEMP:  39; 6HR MAX TEMP:  44;

PAYSON         CLEAR     50  32  50 SW6       30.09S
PAGE           CLEAR     47  25  42 CALM      29.99F
6HR MIN TEMP:  40; 6HR MAX TEMP:  48;

$$

AZZ009>014-017-190100-
NORTHEAST ARIZONA

CITY           SKY/WX    TMP DP  RH WIND       PRES   REMARKS
WINSLOW        CLEAR     53  28  38 W12       30.01F
6HR MIN TEMP:  42; 6HR MAX TEMP:  56;

SAINT JOHNS    MOCLDY    47  31  53 W13       30.02F
6HR MIN TEMP:  42; 6HR MAX TEMP:  48;

SHOW LOW       CLEAR     39  28  65 SW12      30.07F WCI  32
$$

AZZ023-190100-
GREATER PHOENIX AREA

CITY           SKY/WX    TMP DP  RH WIND       PRES   REMARKS
PHOENIX        PTCLDY    65  39  38 CALM      30.01F
6HR MIN TEMP:  53; 6HR MAX TEMP:  67;

BUCKEYE        CLEAR     64  39  39 CALM      30.03F
GLENDALE       PTCLDY    64  39  39 CALM      30.04S
LUKE AFB       CLEAR     65  40  40 SW5       30.01F
6HR MIN TEMP:  56; 6HR MAX TEMP:  65;

DEER VALLEY    CLEAR     63  39  41 SW7       30.02S
6HR MIN TEMP:  55; 6HR MAX TEMP:  63;

SCOTTSDALE     CLEAR     63  39  41 SE3       30.03F
6HR MIN TEMP:  56; 6HR MAX TEMP:  64;

MESA-FALCON    CLEAR    N/A N/A N/A SW7       30.00F
MESA-GATEWAY   PTCLDY    63  39  42 CALM      30.03F
$$

AZZ027-028-190100-
SOUTHWEST MARICOPA COUNTY AND PINAL COUNTY

CITY           SKY/WX    TMP DP  RH WIND       PRES   REMARKS
CASA GRANDE    CLEAR     63  41  44 S5        30.04F
6HR MIN TEMP:  54; 6HR MAX TEMP:  63;

$$

AZZ503-504-507>509-190100-
SOUTHEAST ARIZONA

CITY           SKY/WX    TMP DP  RH WIND       PRES   REMARKS
TUCSON         CLEAR     61  39  44 NW8       30.07S
6HR MIN TEMP:  54; 6HR MAX TEMP:  63;

DAVIS-MONTHAN  CLEAR     60  40  47 N8        30.06S
6HR MIN TEMP:  55; 6HR MAX TEMP:  61;

RYAN FIELD     CLEAR     61  41  48 NW7       30.07S
NOGALES        PTCLDY    59  30  33 W6        30.06S
6HR MIN TEMP:  54; 6HR MAX TEMP:  62;

SIERRA VISTA   PTCLDY    53  33  47 N8        30.09R
6HR MIN TEMP:  52; 6HR MAX TEMP:  58;

DOUGLAS        CLOUDY    56  33  42 N5        30.06S
6HR MIN TEMP:  50; 6HR MAX TEMP:  59;

SAFFORD        PTCLDY    58  37  45 NW13      30.03S
6HR MIN TEMP:  52; 6HR MAX TEMP:  59;

$$

AZZ020-021-025-026-031-190100-
SOUTHWEST ARIZONA

CITY           SKY/WX    TMP DP  RH WIND       PRES   REMARKS
YUMA           SUNNY     68  28  22 SW5       30.01S
6HR MIN TEMP:  60; 6HR MAX TEMP:  69;

$$

CAZ031-033-041-043-047-048-061-190100-
SOUTHERN CALIFORNIA

CITY           SKY/WX    TMP DP  RH WIND       PRES   REMARKS
DOWNTOWN L.A.  CLOUDY    58  47  66 W7        30.12F
6HR MIN TEMP:  57; 6HR MAX TEMP:  62;

L.A. AIRPORT   CLOUDY    57  47  69 W16       30.13F
6HR MIN TEMP:  56; 6HR MAX TEMP:  59;

SAN DIEGO      PTSUNNY   60  49  66 NW9       30.13R
6HR MIN TEMP:  56; 6HR MAX TEMP:  62;

BURBANK        CLOUDY    55  45  68 VRB7      30.11S
6HR MIN TEMP:  54; 6HR MAX TEMP:  58;

ONTARIO        CLOUDY    56  46  69 W14       30.09R
6HR MIN TEMP:  51; 6HR MAX TEMP:  58;

RIVERSIDE      CLOUDY    57  47  69 W12       30.10R
6HR MIN TEMP:  52; 6HR MAX TEMP:  59;

PALM SPRINGS   MOSUNNY   65  33  30 E9        30.01F
6HR MIN TEMP:  59; 6HR MAX TEMP:  66;

EL CENTRO NAS  MOSUNNY   67  31  26 SE7       30.01F
6HR MIN TEMP:  57; 6HR MAX TEMP:  69;

IMPERIAL       SUNNY     68  36  30 S7        30.00S
BLYTHE         CLEAR     65  30  27 S6        30.00F
6HR MIN TEMP:  52; 6HR MAX TEMP:  66;

NEEDLES        CLEAR     64  27  24 W7        30.00S
6HR MIN TEMP:  51; 6HR MAX TEMP:  66;

$$

NVZ020-UTZ003-190100-
SOUTHERN NEVADA-UTAH

CITY           SKY/WX    TMP DP  RH WIND       PRES   REMARKS
LAS VEGAS      MOCLDY    55  24  30 NE5       29.96F
6HR MIN TEMP:  48; 6HR MAX TEMP:  55;

SALT LAKE CITY MOCLDY    26  21  81 NW15      29.98R HAZE    WCI  14
6HR MIN TEMP:  26; 6HR MAX TEMP:  32;

$$

NMZ009-TXZ055-190100-
NEW MEXICO-WEST TEXAS

CITY           SKY/WX    TMP DP  RH WIND       PRES   REMARKS
ALBUQUERQUE    CLOUDY    46  35  65 N5        29.99S
6HR MIN TEMP:  41; 6HR MAX TEMP:  47; 6HR PCP: TRACE;

EL PASO        PTCLDY    55  35  47 SW13      30.02S
6HR MIN TEMP:  48; 6HR MAX TEMP:  56;

$$


........................KEY........................
SKY/WX - SKY CONDITION/WEATHER
TMP    - TEMPERATURE IN FAHRENHEIT
DP     - DEW POINT IN FAHRENHEIT
RH     - RELATIVE HUMIDITY IN PERCENT
WIND   - DIRECTION AND SPEED IN MILES PER HOUR (MPH)
VRB    - VARIABLE WIND DIRECTION
PRES   - MEAN SEA LEVEL PRESSURE IN INCHES OF MERCURY
         F - FALLING PRESSURE   R - RISING PRESSURE
         S - STEADY PRESSURE
VSB    - VISIBILITY IN MILES
HX     - HEAT INDEX IN FAHRENHEIT
WCI    - WIND CHILL INDEX IN FAHRENHEIT
TC     - TEMPERATURE IN CELSIUS WHICH IS ALSO KNOWN AS
         TEMPERATURE IN CENTIGRADE
AFB    - AIR FORCE BASE
         LUKE AFB IS LUKE AIR FORCE BASE
         DAVIS-MONTHAN IS DAVIS-MONTHAN AIR FORCE BASE
NAS    - NAVAL AIR STATION
         EL CENTRO NAS IS EL CENTRO NAVAL AIR STATION
N/A    - NOT AVAILABLE





USA.gov is the U.S. government's official web portal to all federal, state and local government web resources and services.